STARLINK-11700

Satellite information

Favourite Embed

Satellite Type and Status

PAYLOADIN ORBIT

Key statistics

Satellite STARLINK-11700 at a glance.

Uptime

206

Days in orbit

Revolutions

≈ 15.7

Per day

Orbit

LEO

Low Earth Orbit

Inclination

43.0

Latest

Satellite identification and parameters

Extended collection of information and parameters for STARLINK-11700.

Object identification

Identified? True

Debris? False

Object name: STARLINK-11700

International designator: 2025-107E

Object number (NORAD): 64068

Object ID (CCSDS): 64068

Country: UNITED STATES OF AMERICA (US)

Current information (Y/N): Y

RCS size: LARGE

Orbital parameters

Period: 91.669 minutes

Inclination: 42.9984 deg

SMA: 6734.55 km

Apoapsis: 357.201 km

Periapsis: 355.629 km

RAAN: 266.3823 deg

Eccentricy: 0.00011671

Argument of periapsis: 335.4017 deg

Mean anomaly: 24.6795 deg

Mean motion: 15.70868869 rev/day

Mean motion (dot): 0.00330555 rev/day2

B* drag term: 0.0024754575 1/REarth

Two-line elements (TLE)

Creation date: Dec. 12, 2025, 10:14 a.m.

Reference frame: TEME

Reference center: EARTH

Epoch: Dec. 12, 2025, 3:16 a.m. UTC

TLE line 0: 0 STARLINK-11700

TLE line 1: 1 64068U 25107E 25346.13625404 .00330555 00000-0 24755-2 0 9990

TLE line 2: 2 64068 42.9984 266.3823 0001167 335.4017 24.6795 15.70868869 33524

Live tracking on map

Real-time ground track for satellite STARLINK-11700.

In-orbit conjunctions

There are no conjunctions computed for STARLINK-11700, at the moment. Check back to stay up to date, as we update our databases every day.

Go to all conjunctions

Associated space launch

A batch of 23 satellites for the Starlink mega-constellation - SpaceX's project for space-based Internet communication system.

STARLINK-11700 was lifted into orbit during the mission ‘Falcon 9 Block 5 | Starlink Group 12-15’, on board a Falcon 9 space rocket.

The launch took place on May 21, 2025, 3:19 a.m. from Space Launch Complex 40.

For more information about the launch, click the button.

Launch to space Falcon 9 Block 5 | Starlink Group 12-15
Falcon 9 Block 5 | Starlink Group 12-15

Agency: SpaceX

Status: Launch Successful

Launch date: May 21, 2025, 3:19 a.m. UTC

Rocket: Falcon 9

Launch pad: Space Launch Complex 40

Location: Cape Canaveral SFS, FL, USA

...

Latest news about this satellite

News about space launch
Live coverage: New Falcon 9 booster to make second attempt at debut on Starlink delivery mission

SpaceX will try again Tuesday to launch a brand new Falcon 9 booster after an abort halted its first attempt. Liftoff from pad 40 at Cape Canaveral, with 23 Starlink satellites aboard, is scheduled for 11:19 p.m. EDT (0319 UTC).

News about space launch
Launch Roundup: SpaceX to start new Starlink shell; China, Russia to launch unknown payloads

This week, SpaceX will begin building a new shell for its Starlink constellation, launching from… The post Launch Roundup: SpaceX to start new Starlink shell; China, Russia to launch unknown payloads appeared first on NASASpaceFlight.com.

News about space launch
Live coverage: SpaceX to launch 23 Starlink satellites on Falcon 9 launch from Cape Canaveral

The Starlink 12-15 mission is SpaceX’s 60th Falcon 9 launch of 2025. Liftoff from Space Launch Complex 40 at Cape Canaveral Space Force Station is targeting 11:58 p.m. EDT (0358 UTC).


Newsletter sign-up

Weekly statistics, charts and insights to help you stay on top of the space industry.